| time (UTC) | temp F | wind direction | speed knots | gust knots | rain 1hr in | rain 24hr in | rain mn in | humidity % | barometer mb |
| 20260906080214 | 80 | 75 | 0.9 | 2.6 | 0.00 | 0.00 | 0.00 | 68 | 1023.2 |
| 20260906075215 | 79 | 24 | 1.7 | 3.5 | 0.00 | 0.00 | 0.00 | 69 | 1023.1 |
| 20260906074004 | 79 | 70 | 0.9 | 3.5 | 0.00 | 0.00 | 0.00 | 71 | 1023.2 |
| 20260906073217 | 78 | 9 | 0.9 | 2.6 | 0.00 | 0.00 | 0.00 | 71 | 1023.2 |
| 20260906072003 | 77 | 33 | 0.9 | 2.6 | 0.00 | 0.00 | 0.00 | 72 | 1023.1 |
| 20260906071003 | 75 | 19 | 0.9 | 2.6 | 0.00 | 0.00 | 0.00 | 74 | 1023.0 |
| 20260906070004 | 75 | 78 | 1.7 | 3.5 | 0.00 | 0.00 | 0.00 | 76 | 1022.9 |
| 20260906065004 | 74 | 48 | 2.6 | 4.3 | 0.00 | 0.00 | 0.00 | 77 | 1022.9 |
| 20260906064003 | 73 | 28 | 2.6 | 5.2 | 0.00 | 0.00 | 0.00 | 78 | 1022.9 |
| 20260906063003 | 73 | 40 | 2.6 | 6.1 | 0.00 | 0.00 | 0.00 | 79 | 1022.9 |
| 20260906062003 | 72 | 31 | 2.6 | 5.2 | 0.00 | 0.00 | 0.00 | 80 | 1022.8 |
| 20260906061003 | 72 | 38 | 2.6 | 6.1 | 0.00 | 0.00 | 0.00 | 82 | 1022.8 |
| 20260906060004 | 71 | 42 | 1.7 | 4.3 | 0.00 | 0.00 | 0.00 | 83 | 1022.8 |
| 20260906055003 | 71 | 39 | 2.6 | 5.2 | 0.00 | 0.00 | 0.00 | 83 | 1022.8 |
| 20260906054003 | 70 | 30 | 2.6 | 5.2 | 0.00 | 0.00 | 0.00 | 84 | 1022.7 |
| 20260906053003 | 70 | 22 | 2.6 | 6.1 | 0.00 | 0.00 | 0.00 | 84 | 1022.6 |
| 20260906052004 | 70 | 26 | 2.6 | 5.2 | 0.00 | 0.00 | 0.00 | 84 | 1022.6 |
| 20260906051004 | 69 | 29 | 1.7 | 4.3 | 0.00 | 0.00 | 0.00 | 85 | 1022.5 |
| 20260906050216 | 69 | 30 | 1.7 | 4.3 | 0.00 | 0.00 | 0.00 | 85 | 1022.5 |
| 20260906045217 | 69 | 42 | 2.6 | 3.5 | 0.00 | 0.00 | 0.00 | 86 | 1022.4 |
| 20260906044003 | 69 | 24 | 1.7 | 5.2 | 0.00 | 0.00 | 0.00 | 86 | 1022.3 |
| 20260906043003 | 69 | 27 | 1.7 | 2.6 | 0.00 | 0.00 | 0.00 | 86 | 1022.2 |
| 20260906042215 | 69 | 25 | 1.7 | 3.5 | 0.00 | 0.00 | 0.00 | 85 | 1022.2 |
| 20260906041216 | 69 | 22 | 1.7 | 2.6 | 0.00 | 0.00 | 0.00 | 85 | 1022.2 |
| 20260906040217 | 69 | 23 | 1.7 | 3.5 | 0.00 | 0.00 | 0.00 | 85 | 1022.2 |
| 20260906035003 | 69 | 25 | 1.7 | 3.5 | 0.00 | 0.00 | 0.00 | 85 | 1022.1 |
| 20260906034004 | 69 | 35 | 1.7 | 3.5 | 0.00 | 0.00 | 0.00 | 85 | 1022.0 |
| 20260906033004 | 69 | 30 | 1.7 | 3.5 | 0.00 | 0.00 | 0.00 | 84 | 1021.9 |
| 20260906032003 | 70 | 15 | 1.7 | 4.3 | 0.00 | 0.00 | 0.00 | 84 | 1022.0 |
| 20260906031003 | 69 | 23 | 1.7 | 3.5 | 0.00 | 0.00 | 0.00 | 85 | 1022.0 |
| 20260906030003 | 69 | 33 | 1.7 | 3.5 | 0.00 | 0.00 | 0.00 | 85 | 1022.1 |
| 20260906025004 | 70 | 35 | 1.7 | 2.6 | 0.00 | 0.00 | 0.00 | 84 | 1022.0 |
| 20260906024003 | 70 | 28 | 1.7 | 3.5 | 0.00 | 0.00 | 0.00 | 83 | 1022.2 |
| 20260906023003 | 71 | 25 | 1.7 | 3.5 | 0.00 | 0.00 | 0.00 | 83 | 1022.3 |
| 20260906022003 | 70 | 26 | 1.7 | 4.3 | 0.00 | 0.00 | 0.00 | 84 | 1022.1 |
| 20260906021003 | 70 | 32 | 1.7 | 3.5 | 0.00 | 0.00 | 0.00 | 84 | 1022.1 |
| 20260906020004 | 70 | 36 | 1.7 | 3.5 | 0.00 | 0.00 | 0.00 | 84 | 1022.0 |
| 20260906015214 | 70 | 48 | 1.7 | 3.5 | 0.00 | 0.00 | 0.00 | 83 | 1022.0 |
| 20260906014215 | 70 | 44 | 0.9 | 3.5 | 0.00 | 0.00 | 0.00 | 83 | 1022.1 |
| 20260906013003 | 71 | 14 | 0.9 | 2.6 | 0.00 | 0.00 | 0.00 | 81 | 1022.2 |
| 20260906012003 | 72 | 62 | 0.0 | 2.6 | 0.00 | 0.00 | 0.00 | 81 | 1022.2 |
| 20260906011003 | 72 | 64 | 0.0 | 1.7 | 0.00 | 0.00 | 0.00 | 79 | 1022.3 |
| 20260906010005 | 72 | 0 | 0.0 | 0.0 | 0.00 | 0.00 | 0.00 | 80 | 1022.2 |
| 20260906005003 | 72 | 0 | 0.0 | 0.0 | 0.00 | 0.00 | 0.00 | 80 | 1022.2 |
| 20260906004003 | 72 | 0 | 0.0 | 0.0 | 0.00 | 0.00 | 0.00 | 80 | 1022.1 |
| 20260906003003 | 72 | 0 | 0.0 | 0.0 | 0.00 | 0.00 | 0.00 | 78 | 1022.1 |
| 20260906002003 | 72 | 77 | 0.0 | 0.9 | 0.00 | 0.00 | 0.00 | 78 | 1022.1 |
| 20260906001003 | 72 | 76 | 0.9 | 2.6 | 0.00 | 0.00 | 0.00 | 80 | 1022.2 |
| 20260906000003 | 72 | 76 | 0.0 | 2.6 | 0.00 | 0.00 | 0.00 | 80 | 1022.2 |
| 20260905235215 | 72 | 0 | 0.0 | 0.0 | 0.00 | 0.00 | 0.00 | 81 | 1022.4 |
| 20260905234216 | 74 | 0 | 0.0 | 0.0 | 0.00 | 0.00 | 0.00 | 82 | 1022.5 |
| 20260905233004 | 75 | 0 | 0.0 | 0.0 | 0.00 | 0.00 | 0.00 | 79 | 1022.4 |
| 20260905232004 | 76 | 0 | 0.0 | 0.0 | 0.00 | 0.00 | 0.00 | 78 | 1022.5 |
| 20260905230004 | 77 | 79 | 0.0 | 1.7 | 0.00 | 0.00 | 0.00 | 77 | 1022.4 |
| 20260905225003 | 77 | 90 | 0.0 | 0.9 | 0.00 | 0.00 | 0.00 | 77 | 1022.4 |
| 20260905224003 | 77 | 0 | 0.0 | 0.0 | 0.00 | 0.00 | 0.00 | 77 | 1022.4 |
| 20260905223003 | 78 | 0 | 0.0 | 0.0 | 0.00 | 0.00 | 0.00 | 77 | 1022.4 |
| 20260905222004 | 78 | 0 | 0.0 | 0.0 | 0.00 | 0.00 | 0.00 | 77 | 1022.4 |
| 20260905221004 | 77 | 0 | 0.0 | 0.0 | 0.00 | 0.00 | 0.00 | 78 | 1022.5 |
| 20260905220215 | 77 | 99 | 0.9 | 0.9 | 0.00 | 0.00 | 0.00 | 78 | 1022.5 |
| 20260905215003 | 77 | 104 | 0.9 | 2.6 | 0.00 | 0.00 | 0.00 | 78 | 1022.5 |
| 20260905214003 | 77 | 105 | 0.0 | 2.6 | 0.00 | 0.00 | 0.00 | 78 | 1022.4 |
| 20260905213003 | 78 | 0 | 0.9 | 0.0 | 0.00 | 0.00 | 0.00 | 77 | 1022.4 |
| 20260905212003 | 79 | 145 | 0.0 | 1.7 | 0.00 | 0.00 | 0.00 | 75 | 1022.2 |
| 20260905211215 | 79 | 166 | 0.0 | 1.7 | 0.00 | 0.00 | 0.00 | 75 | 1022.2 |
| 20260905210216 | 79 | 224 | 0.0 | 1.7 | 0.00 | 0.00 | 0.00 | 76 | 1022.2 |
| 20260905205003 | 79 | 155 | 0.9 | 1.7 | 0.00 | 0.00 | 0.00 | 76 | 1022.2 |
| 20260905204004 | 79 | 152 | 1.7 | 2.6 | 0.00 | 0.00 | 0.00 | 77 | 1022.3 |
| 20260905203003 | 79 | 150 | 0.9 | 3.5 | 0.00 | 0.00 | 0.00 | 77 | 1022.1 |
| 20260905202214 | 79 | 151 | 0.9 | 3.5 | 0.00 | 0.00 | 0.00 | 77 | 1022.2 |
| 20260905201003 | 79 | 145 | 0.0 | 1.7 | 0.00 | 0.00 | 0.00 | 77 | 1022.1 |
| 20260905200217 | 79 | 230 | 0.9 | 2.6 | 0.00 | 0.00 | 0.00 | 77 | 1022.2 |
| 20260905195004 | 79 | 247 | 0.0 | 2.6 | 0.00 | 0.00 | 0.00 | 77 | 1022.3 |
| 20260905194003 | 79 | 229 | 0.0 | 1.7 | 0.00 | 0.00 | 0.00 | 78 | 1022.2 |
| 20260905193003 | 79 | 300 | 0.0 | 1.7 | 0.00 | 0.00 | 0.00 | 78 | 1022.1 |
| 20260905192215 | 79 | 239 | 1.7 | 2.6 | 0.00 | 0.00 | 0.00 | 77 | 1021.9 |
| 20260905191004 | 79 | 247 | 3.5 | 7.0 | 0.00 | 0.00 | 0.00 | 77 | 1021.8 |
| 20260905190004 | 79 | 245 | 3.5 | 8.7 | 0.00 | 0.00 | 0.00 | 77 | 1021.6 |
| 20260905185004 | 80 | 246 | 4.3 | 7.0 | 0.00 | 0.00 | 0.00 | 76 | 1021.6 |
| 20260905184003 | 80 | 247 | 3.5 | 8.7 | 0.00 | 0.00 | 0.00 | 75 | 1021.7 |
| 20260905183003 | 80 | 240 | 2.6 | 5.2 | 0.00 | 0.00 | 0.00 | 73 | 1021.5 |
| 20260905182004 | 81 | 245 | 2.6 | 6.1 | 0.00 | 0.00 | 0.00 | 71 | 1021.5 |
| 20260905181004 | 81 | 248 | 3.5 | 7.0 | 0.00 | 0.00 | 0.00 | 69 | 1021.2 |
| 20260905180003 | 82 | 253 | 3.5 | 7.8 | 0.00 | 0.00 | 0.00 | 65 | 1021.1 |
| 20260905175003 | 82 | 247 | 2.6 | 6.1 | 0.00 | 0.00 | 0.00 | 62 | 1021.0 |
| 20260905174003 | 83 | 239 | 1.7 | 7.8 | 0.00 | 0.00 | 0.00 | 59 | 1020.8 |
| 20260905173004 | 84 | 236 | 2.6 | 6.1 | 0.00 | 0.00 | 0.00 | 57 | 1020.7 |
| 20260905172003 | 85 | 234 | 2.6 | 7.8 | 0.00 | 0.00 | 0.00 | 55 | 1020.7 |
| 20260905171003 | 87 | 254 | 1.7 | 9.6 | 0.00 | 0.00 | 0.00 | 53 | 1020.7 |
| 20260905170004 | 88 | 243 | 2.6 | 9.6 | 0.00 | 0.00 | 0.00 | 52 | 1020.5 |
| 20260905165003 | 89 | 240 | 2.6 | 5.2 | 0.00 | 0.00 | 0.00 | 50 | 1020.5 |
| 20260905164003 | 89 | 239 | 1.7 | 8.7 | 0.00 | 0.00 | 0.00 | 48 | 1020.5 |
| 20260905163003 | 90 | 249 | 1.7 | 5.2 | 0.00 | 0.00 | 0.00 | 45 | 1020.6 |
| 20260905162003 | 90 | 231 | 2.6 | 7.0 | 0.00 | 0.00 | 0.00 | 45 | 1020.5 |
| 20260905161003 | 90 | 240 | 2.6 | 8.7 | 0.00 | 0.00 | 0.00 | 44 | 1020.4 |
| 20260905160003 | 91 | 221 | 3.5 | 9.6 | 0.00 | 0.00 | 0.00 | 45 | 1020.3 |
| 20260905155003 | 91 | 232 | 2.6 | 8.7 | 0.00 | 0.00 | 0.00 | 46 | 1020.4 |
| 20260905154003 | 91 | 215 | 3.5 | 7.8 | 0.00 | 0.00 | 0.00 | 47 | 1020.3 |
| 20260905153003 | 91 | 247 | 6.1 | 10.4 | 0.00 | 0.00 | 0.00 | 47 | 1020.3 |
| 20260905152003 | 91 | 247 | 4.3 | 12.2 | 0.00 | 0.00 | 0.00 | 47 | 1020.3 |
| 20260905151003 | 91 | 239 | 3.5 | 10.4 | 0.00 | 0.00 | 0.00 | 46 | 1020.4 |
| 20260905150004 | 92 | 243 | 4.3 | 8.7 | 0.00 | 0.00 | 0.00 | 45 | 1020.4 |
| 20260905145215 | 92 | 239 | 3.5 | 9.6 | 0.00 | 0.00 | 0.00 | 44 | 1020.4 |
| 20260905144004 | 93 | 227 | 3.5 | 7.8 | 0.00 | 0.00 | 0.00 | 42 | 1020.5 |
| 20260905143003 | 93 | 222 | 4.3 | 7.0 | 0.00 | 0.00 | 0.00 | 43 | 1020.5 |
| 20260905142213 | 92 | 250 | 7.0 | 13.9 | 0.00 | 0.00 | 0.00 | 42 | 1020.5 |
| 20260905141004 | 92 | 252 | 7.0 | 13.0 | 0.00 | 0.00 | 0.00 | 42 | 1020.5 |
| 20260905140004 | 92 | 253 | 6.1 | 12.2 | 0.00 | 0.00 | 0.00 | 39 | 1020.6 |
| 20260905135003 | 94 | 252 | 3.5 | 12.2 | 0.00 | 0.00 | 0.00 | 36 | 1020.6 |
| 20260905134217 | 95 | 232 | 4.3 | 8.7 | 0.00 | 0.00 | 0.00 | 34 | 1020.7 |
| 20260905133003 | 94 | 249 | 3.5 | 10.4 | 0.00 | 0.00 | 0.00 | 34 | 1020.6 |
| 20260905132003 | 94 | 232 | 5.2 | 9.6 | 0.00 | 0.00 | 0.00 | 35 | 1020.8 |
| 20260905131003 | 94 | 252 | 4.3 | 11.3 | 0.00 | 0.00 | 0.00 | 33 | 1020.7 |
| 20260905130004 | 95 | 250 | 4.3 | 13.0 | 0.00 | 0.00 | 0.00 | 32 | 1020.8 |
| 20260905125003 | 95 | 244 | 2.6 | 7.0 | 0.00 | 0.00 | 0.00 | 32 | 1020.9 |
| 20260905124004 | 94 | 233 | 3.5 | 9.6 | 0.00 | 0.00 | 0.00 | 33 | 1020.9 |
| 20260905123003 | 94 | 258 | 4.3 | 9.6 | 0.00 | 0.00 | 0.00 | 33 | 1020.9 |
| 20260905122004 | 95 | 220 | 2.6 | 7.8 | 0.00 | 0.00 | 0.00 | 30 | 1021.0 |
| 20260905121216 | 95 | 202 | 2.6 | 7.8 | 0.00 | 0.00 | 0.00 | 30 | 1021.1 |
| 20260905120003 | 95 | 177 | 2.6 | 5.2 | 0.00 | 0.00 | 0.00 | 30 | 1021.2 |
| 20260905115003 | 94 | 213 | 1.7 | 7.0 | 0.00 | 0.00 | 0.00 | 29 | 1021.2 |
| 20260905114004 | 94 | 220 | 2.6 | 6.1 | 0.00 | 0.00 | 0.00 | 27 | 1021.3 |
| 20260905113003 | 93 | 218 | 2.6 | 7.8 | 0.00 | 0.00 | 0.00 | 29 | 1021.4 |
| 20260905112003 | 93 | 234 | 4.3 | 8.7 | 0.00 | 0.00 | 0.00 | 29 | 1021.5 |
| 20260905111003 | 92 | 242 | 3.5 | 9.6 | 0.00 | 0.00 | 0.00 | 31 | 1021.5 |
| 20260905110004 | 92 | 237 | 1.7 | 8.7 | 0.00 | 0.00 | 0.00 | 33 | 1021.5 |
| 20260905105003 | 93 | 215 | 1.7 | 5.2 | 0.00 | 0.00 | 0.00 | 30 | 1021.5 |
| 20260905104214 | 92 | 236 | 2.6 | 7.0 | 0.00 | 0.00 | 0.00 | 32 | 1021.5 |
| 20260905102003 | 91 | 223 | 2.6 | 9.6 | 0.00 | 0.00 | 0.00 | 34 | 1021.6 |
| 20260905101217 | 90 | 241 | 2.6 | 7.0 | 0.00 | 0.00 | 0.00 | 36 | 1021.7 |
| 20260905100004 | 90 | 177 | 2.6 | 6.1 | 0.00 | 0.00 | 0.00 | 37 | 1021.7 |
| 20260905095003 | 89 | 246 | 1.7 | 5.2 | 0.00 | 0.00 | 0.00 | 40 | 1021.8 |
| 20260905094214 | 88 | 275 | 1.7 | 5.2 | 0.00 | 0.00 | 0.00 | 43 | 1021.9 |
| 20260905093003 | 87 | 276 | 1.7 | 4.3 | 0.00 | 0.00 | 0.00 | 45 | 1021.9 |
| 20260905092004 | 87 | 290 | 1.7 | 3.5 | 0.00 | 0.00 | 0.00 | 46 | 1022.0 |
| 20260905091004 | 87 | 262 | 1.7 | 3.5 | 0.00 | 0.00 | 0.00 | 46 | 1022.0 |
| 20260905090003 | 86 | 258 | 0.9 | 4.3 | 0.00 | 0.00 | 0.00 | 47 | 1021.8 |
| 20260905085003 | 86 | 226 | 0.0 | 1.7 | 0.00 | 0.00 | 0.00 | 48 | 1021.7 |
| 20260905084003 | 84 | 242 | 0.9 | 1.7 | 0.00 | 0.00 | 0.00 | 50 | 1021.9 |
| 20260905083004 | 83 | 264 | 0.9 | 2.6 | 0.00 | 0.00 | 0.00 | 53 | 1021.8 |
| 20260905082003 | 82 | 260 | 0.9 | 1.7 | 0.00 | 0.00 | 0.00 | 53 | 1021.7 |
| 20260905081003 | 81 | 276 | 0.9 | 3.5 | 0.00 | 0.00 | 0.00 | 55 | 1021.9 |